Regional Weather Roundup
Issued by NWS Sterling, VA

Home | Current Version | Previous Version | Text Only | Print | Product List | Glossary Off
Versions: 1 2 3 4 5 6 7 8 9 10 11 12 13 14 15 16 17 18 19 20 21 22 23 24 25 26 27 28 29 30 31 32 33 34 35 36 37 38 39 40 41 42 43 44 45 46 47 48 49 50

000
ASUS41 KLWX 262211
RWRLWX

REGIONAL WEATHER ROUNDUP
NATIONAL WEATHER SERVICE BALTIMORE MD/WASHINGTON DC
600 PM EDT THU APR 26 2018

Note: "FAIR" indicates few or no clouds below 12,000 feet
with no significant weather and/or obstructions to visibility.
 TC=TEMPERATURE CELSIUS

 * =Non NWS site. Station does not report precipitation (e.g. rain,
    snow, etc.), thunder, or fog.

DCZ001-MDZ009-015-VAZ040>042-051-053>054-262300-
WASHINGTON METRO

CITY           SKY/WX    TMP DP  RH WIND       PRES   REMARKS
WASHINGTON NAT FAIR      72  35  25 W8        29.84R
DULLES         PTSUNNY   71  36  27 N3        29.84R
ANDREWS AFB    FAIR      69  34  27 NW5       29.83S
FT BELVOIR     FAIR      71  38  30 SE8       29.83R
QUANTICO       FAIR      68  49  50 SE7       29.84R
COLLEGE PARK*  FAIR      69  37  30 CALM      29.84R
LEESBURG*      FAIR      70  39  32 N5        29.85S
MANASSAS*      FAIR      72  38  29 CALM      29.83S
GAITHERSBURG*  FAIR      69  36  29 VRB3      29.86R

$$

MDZ006>007-011-014-262300-
BALTIMORE METRO

CITY           SKY/WX    TMP DP  RH WIND       PRES   REMARKS
BWI AIRPORT    FAIR      69  34  27 S6        29.84R
MD SCIENCE CTR   N/A     69  34  27 MISG      29.85R
MARTIN STATE   MOSUNNY   70  39  32 SW9       29.86R
ANNAPOLIS      FAIR      63  51  65 SE10      29.84R
FORT MEADE*    FAIR      68  34  28 W7        29.86S

$$

MDZ012-015-019>023-262300-
MARYLAND EASTERN SHORE

CITY           SKY/WX    TMP DP  RH WIND       PRES   REMARKS
OCEAN CITY     FAIR      69  36  29 NW9       29.85R
SALISBURY      FAIR      68  40  35 SW9       29.86R
BAY BRIDGE AP* FAIR      68  43  40 SE7       29.85R
CAMBRIDGE*     SUNNY     68  39  34 SW5       29.85S
EASTON*        MOSUNNY   70  37  30 W5        29.89R

$$

MDZ017>025-262300-
SOUTHERN MARYLAND

CITY           SKY/WX    TMP DP  RH WIND       PRES   REMARKS
PATUXENT RIVER PTSUNNY   66  42  41 SE12      29.85R
ST INIGOES     NOT AVBL
LEONARDTOWN*   FAIR      70  34  26 W6        29.86S

$$

MDZ003>005-262300-
NORTH CENTRAL MARYLAND

CITY           SKY/WX    TMP DP  RH WIND       PRES   REMARKS
FREDERICK*     SUNNY     68  25  19 CALM      29.87R
HAGERSTOWN APT FAIR      66  37  34 VRB5      29.84S
WESTMINSTER*   FAIR      70  37  30 W8        29.85S

$$

MDZ501>502-262300-
WESTERN MARYLAND

CITY           SKY/WX    TMP DP  RH WIND       PRES   REMARKS
OAKLAND*       FAIR      52  28  40 W5        29.87S
CUMBERLAND*    FAIR      70  30  23 N3        29.87S

$$

VAZ025>031-262300-
SHENANDOAH VALLEY

CITY           SKY/WX    TMP DP  RH WIND       PRES   REMARKS
WINCHESTER*    FAIR      66  34  30 NW7       29.85S
FRONT ROYAL*   FAIR      68  32  26 CALM      29.82S
LURAY*         FAIR      70  32  24 CALM      29.82S
NEW MARKET*    FAIR      69  37  31 CALM      29.80S
STAUNTON*      FAIR      68  36  30 S3        29.84S
WAYNESBORO*    FAIR      68  37  31 CALM      29.83S

$$

WVZ021-048>050-054>055-262300-
EASTERN WEST VIRGINIA PANHANDLE

CITY           SKY/WX    TMP DP  RH WIND       PRES   REMARKS
MARTINSBURG    FAIR      68  29  23 NW3       29.82S
PETERSBURG*    FAIR      68  38  33 CALM      29.82S

$$

VAZ036>039-050-262300-
CENTRAL FOOTHILLS

CITY           SKY/WX    TMP DP  RH WIND       PRES   REMARKS
CHARLOTTESVILL FAIR      72  37  28 S9        29.81S
CULPEPER*      FAIR      73  33  23 CALM      29.83F
ORANGE*          N/A     72  36  26 CALM      29.82
GORDONSVILLE*  FAIR      71  39  30 S6        29.82S
WARRENTON*     FAIR      73  30  20 W3        29.82S

$$

VAZ055>057-262300-
NORTH AND CENTRAL PIEDMONT

CITY           SKY/WX    TMP DP  RH WIND       PRES   REMARKS
FREDERICKSBRG* FAIR      73  40  30 CALM      29.82S
STAFFORD*      FAIR      73  35  24 CALM      29.86F

$$

NCZ024-NYZ072-PAZ021-071-VAZ022-071-262300-
OTHER REGIONAL OBSERVATIONS

CITY           SKY/WX    TMP DP  RH WIND       PRES   REMARKS
NEW YORK CITY  FAIR      69  41  36 W6        29.80R
PHILADELPHIA   FAIR      66  41  40 W14       29.83R
PITTSBURGH     PTSUNNY   60  32  34 CALM      29.85S
ROANOKE        CLOUDY    69  41  36 CALM      29.84R
RICHMOND       CLOUDY    71  48  43 S3        29.83S
RALEIGH        CLOUDY    71  55  56 S3        29.82F

$$

ANZ530>537-262300-
MARINE OBSERVATIONS

STATION/POSITION TIME  TEMP    WIND        PRES
                       AIR SEA DIR/SP/G
                 (UTC) (F)     (DEG/KT/KT) (MB)
THOMAS PT LIGHT  2200   59 55  170/  9/ 10 1011.6R
BALT KEY BRIDGE  2148   67     290/  6/  8 1010.4R
COVE POINT       2148   57     180/ 11/ 13 1011.5R
LEWISETTA        2148   60 60  110/ 11/ 13 1011.0R
SOLOMONS ISLAND  2148   61 56  120/ 11/ 13 1010.4S
PINEY POINT      2148          160/ 13/ 14   N/A

$$




USA.gov is the U.S. government's official web portal to all federal, state and local government web resources and services.